Hutchinson Municipal Airport
KHUT : rendu visible

Aérodrome :











RETROUVEZ-NOUS SUR...

 
LOGIN :

S'inscrire | Disclaimer

   EN    FR    IT 

 









Légende :    VFR   VFR Marginal   IFR   IFR Intensif   IFR Très Intensif
Visi : 
Plafond : 
>= 8 km
>= 3000ft
5 à 8 km
1000 à 3000 ft
1500m à 5 km
500 à 1000 ft
800 à 1500m
200 à 500 ft
< 800m
< 200 ft
Symboles :   Orages  Brouillard  Fortes neiges  Fortes précipitations  Vent > 20 kt






- Altitude de l'aérodrome : 1543 ft


KHUT - Hutchinson Municipal

DERNIER METAR :
  • 050052Z 11007KT 4SM HZ OVC031 09/01 A3003 RMK AO2 SLP170 T00890011

METARs EXPIRÉS :
  • 042352Z 12009KT 3SM HZ OVC032 09/01 A3003 RMK AO2 SLP171 T00940006 10117 20061 55008
  • 042252Z 09007KT 10SM CLR 11/00 A3002 RMK AO2 SLP168 T01060000

TAF KHUT
Valide du 05 à 00h jusqu'au 06 à 00h UTC


042321Z 0500/0524 09006KT P6SM FEW250
FM050900 00000KT P6SM SCT035
FM051400 15006KT P6SM SCT050
FM051900 17015G23KT P6SM BKN070



MET'MAP, la Météo Aéronautique d'un coup d'oeil ! - Copyright ORBIFLY Décembre 2007 - Disclaimer

ORBIFLY MET'MAP TEAM :

Programmation & Développement : Alexandra Zaïnal
Sur une idée originale de : Baudouin d'Aumeries
Assistance à la programmation : Marc-Olivier Méhu
Soutien technique & logistique : Manuel Goepfert

Contact : metmap@orbifly.com




SOURCES & CREDITS :

   NOAA       Earth
Advisory